Eagle, CO

6:06 AM MDT on September 26, 2017 (GMT -0600)
Eagle County Regional

Weather History for KEGE - December, 2012

Change the Weather History Date:

Sunday, December 30, 2012

  Actual Average Record
Temperature  
Mean Temperature 6 °F -  
Max Temperature 17 °F 31 °F 51 °F (2011)
Min Temperature -5 °F 3 °F -26 °F (1954)
Degree Days  
Heating Degree Days 59    
Moisture  
Dew Point -1 °F    
Average Humidity 85    
Maximum Humidity 92    
Minimum Humidity 58    
Precipitation  
Precipitation 0.00 in - - ()
Sea Level Pressure  
Sea Level Pressure 30.00 in    
Wind  
Wind Speed 1 mph (East)    
Max Wind Speed 6 mph    
Max Gust Speed -    
Visibility 10 miles    
Events      
Averages and records for this station are not official NWS values.
T = Trace of Precipitation, MM = Missing Value Source: NWS Daily Summary

Daily Weather History Graph

Daily Weather History Graph

Search for Another Location

Airport or City:

Trip Planner

Search our weather history database for the weather conditions in past years. The results will help you decide how hot, cold, wet, or windy it might be!

Date:

Astronomy

Dec. 30, 2012 Rise Set
Actual Time 7:28 AM MST 4:52 PM MST
Civil Twilight 6:57 AM MST 5:23 PM MST
Nautical Twilight 6:24 AM MST 5:57 PM MST
Astronomical Twilight 5:51 AM MST 6:29 PM MST
Moon 7:26 PM MST (12/30) 8:39 AM MST (12/30)
Length of Visible Light 10h 25m
Length of Day
9h 24m
Waning Gibbous, 95% of the Moon is Illuminated
Dec 30
Waning Gibbous
Jan 4
Last Quarter
Jan 11
New
Jan 18
First Quarter
Jan 26
Full

Hourly Weather History & Observations

Time (MST) Temp. Windchill Dew Point Humidity Pressure Visibility Wind Dir Wind Speed Gust Speed Precip Events Conditions
12:15 AM -5.8 °F -14.5 °F -7.6 °F 92% 30.06 in 10.0 mi East 3.5 mph - N/A   Clear
1:35 AM -5.8 °F - -7.6 °F 92% 30.07 in 10.0 mi Calm Calm - N/A   Clear
1:55 AM -5.8 °F - -7.6 °F 92% 30.08 in 10.0 mi Calm Calm - N/A   Clear
2:35 AM -5.8 °F - -7.6 °F 92% 30.09 in 10.0 mi Calm Calm - N/A   Clear
2:55 AM -5.8 °F - -9.4 °F 84% 30.10 in 10.0 mi Calm Calm - N/A   Clear
3:15 AM -5.8 °F - -7.6 °F 92% 30.09 in 10.0 mi Calm Calm - N/A   Clear
3:35 AM -5.8 °F - -9.4 °F 84% 30.10 in 10.0 mi Calm Calm - N/A   Partly Cloudy
3:55 AM -5.8 °F - -7.6 °F 92% 30.10 in 10.0 mi Calm Calm - N/A   Partly Cloudy
4:15 AM -5.8 °F - -7.6 °F 92% 30.09 in 10.0 mi Calm Calm - N/A   Clear
4:35 AM -5.8 °F - -7.6 °F 92% 30.09 in 10.0 mi Calm Calm - N/A   Clear
5:15 AM -5.8 °F - -7.6 °F 92% 30.08 in 10.0 mi Calm Calm - N/A   Clear
5:35 AM -5.8 °F - -7.6 °F 92% 30.08 in 10.0 mi Calm Calm - N/A   Clear
6:15 AM -5.8 °F - -7.6 °F 92% 30.07 in 10.0 mi Calm Calm - N/A   Clear
6:35 AM -5.8 °F - -9.4 °F 84% 30.07 in 10.0 mi Calm Calm - N/A   Clear
6:52 AM -5.8 °F - -9.4 °F 84% 30.07 in 10.0 mi Calm Calm - N/A   Partly Cloudy
7:50 AM -5.8 °F - -7.6 °F 92% 30.06 in 10.0 mi Calm Calm - N/A   Mostly Cloudy
8:50 AM -4.0 °F - -7.6 °F 85% 30.06 in 10.0 mi Calm Calm - N/A   Overcast
9:50 AM 1.4 °F - -4.0 °F 78% 30.06 in 10.0 mi Calm Calm - N/A   Mostly Cloudy
10:50 AM 3.2 °F - -0.4 °F 85% 30.05 in 10.0 mi Calm Calm - N/A   Mostly Cloudy
11:50 AM 6.8 °F - 1.4 °F 79% 30.00 in 10.0 mi Calm Calm - N/A   Mostly Cloudy
12:50 PM 10.4 °F - 3.2 °F 73% 29.96 in 10.0 mi Calm Calm - N/A   Mostly Cloudy
1:50 PM 12.2 °F - 3.2 °F 67% 29.93 in 10.0 mi Calm Calm - N/A   Mostly Cloudy
2:50 PM 17.6 °F - 5.0 °F 58% 29.93 in 10.0 mi Calm Calm - N/A   Mostly Cloudy
3:50 PM 15.8 °F - 6.8 °F 68% 29.92 in 10.0 mi Calm Calm - N/A   Mostly Cloudy
4:50 PM 17.6 °F - 8.6 °F 68% 29.92 in 10.0 mi Calm Calm - N/A   Overcast
5:50 PM 15.8 °F - 8.6 °F 73% 29.90 in 10.0 mi Calm Calm - N/A   Overcast
6:50 PM 10.4 °F - 6.8 °F 85% 29.90 in 10.0 mi Calm Calm - N/A   Mostly Cloudy
7:50 PM 10.4 °F 0.8 °F 6.8 °F 85% 29.89 in 10.0 mi ENE 5.8 mph - N/A   Mostly Cloudy
8:55 PM 12.2 °F 2.9 °F 8.6 °F 85% 29.88 in 10.0 mi East 5.8 mph - N/A   Mostly Cloudy
9:50 PM 12.2 °F - 8.6 °F 85% 29.88 in 10.0 mi Calm Calm - N/A   Mostly Cloudy
10:50 PM 12.2 °F - 10.4 °F 92% 29.88 in 10.0 mi Calm Calm - N/A   Mostly Cloudy
10:55 PM 12.2 °F - 10.4 °F 92% 29.88 in 10.0 mi Calm Calm - N/A   Partly Cloudy
11:15 PM 10.4 °F - 8.6 °F 92% 29.88 in 10.0 mi Calm Calm - N/A   Partly Cloudy
11:35 PM 10.4 °F - 8.6 °F 92% 29.87 in 10.0 mi Calm Calm - N/A   Clear